Valley City, ND

10:48 AM CST on December 09, 2019 (GMT -0600)
Valley City

Weather History for KBAC - October, 2019

Change the Weather History Date:

Thursday, October 17, 2019

  Actual Average (WUND) Record (WUND)
Temperature  
Mean Temperature 44 °F -  
Max Temperature 55 °F - - (-1)
Min Temperature 32 °F - - (-1)
Degree Days  
Heating Degree Days 22    
Moisture  
Dew Point 38 °F    
Average Humidity 85    
Maximum Humidity 100    
Minimum Humidity 58    
Precipitation  
Precipitation 0.00 in - - ()
Sea Level Pressure  
Sea Level Pressure 29.80 in    
Wind  
Wind Speed 11 mph (SE)    
Max Wind Speed 17 mph    
Max Gust Speed 22 mph    
Visibility 10 miles    
Events      
Averages and records for this station are not official NWS values.
T = Trace of Precipitation, MM = Missing Value Source: NWS Daily Summary

Daily Weather History Graph

Daily Weather History Graph

Search for Another Location

Airport or City:

Astronomy

Oct. 17, 2019 Rise Set
Actual Time 7:52 AM CDT 6:41 PM CDT
Civil Twilight 7:21 AM CDT 7:12 PM CDT
Nautical Twilight 6:46 AM CDT 7:47 PM CDT
Astronomical Twilight 6:11 AM CDT 8:22 PM CDT
Moon 9:01 PM CDT (10/17) 11:37 AM CDT (10/17)
Length of Visible Light 11h 50m
Length of Day
10h 48m
Waning Gibbous, 86% of the Moon is Illuminated
Oct 17
Waning Gibbous
Oct 21
Last Quarter
Oct 27
New
Nov 4
First Quarter
Nov 12
Full

Hourly Weather History & Observations

Time (CDT) Temp. Windchill Dew Point Humidity Pressure Visibility Wind Dir Wind Speed Gust Speed Precip Events Conditions
12:15 AM 33.8 °F 25.3 °F 33.8 °F 100% 29.95 in 10.0 mi SSE 11.5 mph - N/A   Clear
12:35 AM 33.8 °F 26.4 °F 33.8 °F 100% 29.95 in 10.0 mi SSE 9.2 mph - N/A   Clear
12:55 AM 33.8 °F 26.4 °F 33.8 °F 100% 29.94 in 10.0 mi SSE 9.2 mph - N/A   Clear
1:15 AM 33.8 °F 26.4 °F 33.8 °F 100% 29.94 in 10.0 mi SSE 9.2 mph - N/A   Clear
1:35 AM 33.8 °F 25.3 °F 33.8 °F 100% 29.93 in 10.0 mi SSE 11.5 mph - N/A   Clear
1:55 AM 33.8 °F 25.8 °F 33.8 °F 100% 29.92 in 10.0 mi SSE 10.4 mph - N/A   Clear
2:15 AM 33.8 °F 25.8 °F 33.8 °F 100% 29.92 in 10.0 mi SSE 10.4 mph - N/A   Clear
2:35 AM 33.8 °F 25.8 °F 33.8 °F 100% 29.91 in 10.0 mi SSE 10.4 mph - N/A   Clear
2:55 AM 33.8 °F 25.3 °F 33.8 °F 100% 29.91 in 10.0 mi SSE 11.5 mph - N/A   Clear
3:15 AM 33.8 °F 25.8 °F 33.8 °F 100% 29.92 in 10.0 mi SSE 10.4 mph - N/A   Clear
3:35 AM 33.8 °F 25.3 °F 33.8 °F 100% 29.91 in 10.0 mi SSE 11.5 mph 17.3 mph N/A   Clear
3:55 AM 33.8 °F 25.3 °F 33.8 °F 100% 29.91 in 10.0 mi SSE 11.5 mph - N/A   Clear
4:15 AM 33.8 °F 26.4 °F 33.8 °F 100% 29.90 in 10.0 mi SSE 9.2 mph - N/A   Clear
4:35 AM 33.8 °F 26.4 °F 33.8 °F 100% 29.90 in 10.0 mi SSE 9.2 mph - N/A   Clear
4:55 AM 33.8 °F 26.4 °F 33.8 °F 100% 29.89 in 10.0 mi SSE 9.2 mph - N/A   Clear
5:15 AM 33.8 °F 27.0 °F 33.8 °F 100% 29.90 in 10.0 mi SSE 8.1 mph - N/A   Clear
5:35 AM 33.8 °F 27.0 °F 33.8 °F 100% 29.89 in 10.0 mi SSE 8.1 mph - N/A   Clear
5:55 AM 32.0 °F 24.2 °F 32.0 °F 100% 29.89 in 10.0 mi SSE 9.2 mph - N/A   Clear
6:15 AM 32.0 °F 23.6 °F 32.0 °F 100% 29.89 in 10.0 mi SSE 10.4 mph - N/A   Clear
6:35 AM 32.0 °F 24.2 °F 32.0 °F 100% 29.89 in 10.0 mi SSE 9.2 mph - N/A   Clear
6:55 AM 32.0 °F 24.2 °F 32.0 °F 100% 29.89 in 10.0 mi SSE 9.2 mph - N/A   Clear
7:15 AM 32.0 °F 23.0 °F 32.0 °F 100% 29.88 in 10.0 mi SSE 11.5 mph - N/A   Clear
7:35 AM 32.0 °F 24.2 °F 32.0 °F 100% 29.88 in 10.0 mi SSE 9.2 mph - N/A   Clear
7:55 AM 32.0 °F 24.2 °F 32.0 °F 100% 29.88 in 10.0 mi SSE 9.2 mph - N/A   Clear
8:15 AM 32.0 °F 24.2 °F 32.0 °F 100% 29.88 in 10.0 mi SSE 9.2 mph - N/A   Clear
8:35 AM 32.0 °F 24.2 °F 32.0 °F 100% 29.88 in 10.0 mi SSE 9.2 mph - N/A   Clear
8:55 AM 33.8 °F 25.8 °F 33.8 °F 100% 29.87 in 10.0 mi SSE 10.4 mph - N/A   Clear
9:15 AM 33.8 °F 26.4 °F 33.8 °F 100% 29.87 in 10.0 mi SSE 9.2 mph - N/A   Clear
9:35 AM 35.6 °F 28.6 °F 35.6 °F 100% 29.87 in 10.0 mi SSE 9.2 mph - N/A   Clear
9:55 AM 37.4 °F 31.4 °F 37.4 °F 100% 29.87 in 10.0 mi SSE 8.1 mph - N/A   Clear
10:35 AM 41.0 °F 36.4 °F 39.2 °F 93% 29.87 in 10.0 mi SSE 6.9 mph - N/A   Clear
10:55 AM 41.0 °F 34.7 °F 39.2 °F 93% 29.87 in 10.0 mi SE 10.4 mph - N/A   Clear
11:15 AM 42.8 °F 37.0 °F 39.2 °F 87% 29.86 in 10.0 mi SSE 10.4 mph - N/A   Clear
11:35 AM 44.6 °F 38.8 °F 39.2 °F 81% 29.85 in 10.0 mi SE 11.5 mph - N/A   Clear
11:55 AM 46.4 °F 40.7 °F 39.2 °F 76% 29.84 in 10.0 mi SE 12.7 mph - N/A   Clear
12:15 PM 46.4 °F 40.7 °F 39.2 °F 76% 29.84 in 10.0 mi SE 12.7 mph - N/A   Clear
12:35 PM 48.2 °F - 39.2 °F 71% 29.83 in 10.0 mi SE 12.7 mph - N/A   Clear
12:55 PM 48.2 °F - 39.2 °F 71% 29.82 in 10.0 mi SE 16.1 mph - N/A   Clear
1:35 PM 51.8 °F - 41.0 °F 67% 29.80 in 10.0 mi SE 16.1 mph - N/A   Clear
1:55 PM 51.8 °F - 41.0 °F 67% 29.80 in 10.0 mi SE 15.0 mph - N/A   Clear
2:15 PM 53.6 °F - 41.0 °F 62% 29.79 in 10.0 mi SE 13.8 mph - N/A   Clear
2:35 PM 53.6 °F - 41.0 °F 62% 29.77 in 10.0 mi SSE 12.7 mph - N/A   Clear
2:55 PM 55.4 °F - 41.0 °F 58% 29.76 in 10.0 mi SE 13.8 mph 19.6 mph N/A   Clear
3:15 PM 53.6 °F - 41.0 °F 62% 29.75 in 10.0 mi SE 13.8 mph - N/A   Clear
3:55 PM 55.4 °F - 42.8 °F 63% 29.73 in 10.0 mi SE 16.1 mph - N/A   Clear
4:15 PM 53.6 °F - 41.0 °F 62% 29.73 in 10.0 mi SE 15.0 mph - N/A   Clear
4:35 PM 55.4 °F - 42.8 °F 63% 29.73 in 10.0 mi SE 11.5 mph 19.6 mph N/A   Clear
4:55 PM 55.4 °F - 42.8 °F 63% 29.72 in 10.0 mi SE 13.8 mph 20.7 mph N/A   Clear
5:15 PM 55.4 °F - 41.0 °F 58% 29.70 in 10.0 mi SE 16.1 mph 21.9 mph N/A   Clear
5:35 PM 55.4 °F - 42.8 °F 63% 29.70 in 10.0 mi SE 15.0 mph - N/A   Clear
5:55 PM 53.6 °F - 42.8 °F 67% 29.69 in 10.0 mi SE 12.7 mph 20.7 mph N/A   Clear
6:15 PM 53.6 °F - 42.8 °F 67% 29.69 in 10.0 mi SE 17.3 mph - N/A   Clear
6:35 PM 51.8 °F - 42.8 °F 71% 29.69 in 10.0 mi SE 13.8 mph 19.6 mph N/A   Clear
6:55 PM 51.8 °F - 42.8 °F 71% 29.69 in 10.0 mi SSE 11.5 mph 18.4 mph N/A   Clear
7:15 PM 50.0 °F - 41.0 °F 71% 29.68 in 10.0 mi SE 9.2 mph 18.4 mph N/A   Clear
7:35 PM 50.0 °F - 42.8 °F 76% 29.67 in 10.0 mi SSE 10.4 mph - N/A   Clear
7:55 PM 50.0 °F - 42.8 °F 76% 29.67 in 10.0 mi SE 10.4 mph - N/A   Clear
8:15 PM 50.0 °F - 42.8 °F 76% 29.67 in 10.0 mi SE 11.5 mph - N/A   Clear
8:35 PM 50.0 °F - 42.8 °F 76% 29.65 in 10.0 mi SE 13.8 mph - N/A   Clear
8:55 PM 50.0 °F - 42.8 °F 76% 29.65 in 10.0 mi SE 12.7 mph 18.4 mph N/A   Clear
9:15 PM 50.0 °F - 42.8 °F 76% 29.65 in 10.0 mi SE 15.0 mph - N/A   Clear
9:35 PM 50.0 °F - 42.8 °F 76% 29.64 in 10.0 mi SE 15.0 mph 21.9 mph N/A   Clear
9:55 PM 50.0 °F - 42.8 °F 76% 29.64 in 10.0 mi SSE 13.8 mph - N/A   Clear
10:15 PM 50.0 °F - 42.8 °F 76% 29.62 in 10.0 mi SE 15.0 mph 21.9 mph N/A   Clear
10:35 PM 50.0 °F - 42.8 °F 76% 29.62 in 10.0 mi SE 13.8 mph 19.6 mph N/A   Clear
10:55 PM 48.2 °F - 42.8 °F 82% 29.61 in 10.0 mi SE 13.8 mph 21.9 mph N/A   Clear
11:15 PM 48.2 °F - 42.8 °F 82% 29.60 in 10.0 mi SE 16.1 mph - N/A   Clear
11:35 PM 48.2 °F - 42.8 °F 82% 29.60 in 10.0 mi SSE 13.8 mph 19.6 mph N/A   Clear
11:55 PM 48.2 °F - 42.8 °F 82% 29.58 in 10.0 mi SE 10.4 mph 20.7 mph N/A   Clear